Regional Weather Roundup
Issued by NWS

Home | Current Version | Previous Version | Text Only | Print | Product List | Glossary Off
Versions: 1 2 3 4 5 6 7 8 9 10 11 12 13 14 15 16 17 18 19 20 21 22 23 24 25 26 27 28 29 30 31 32 33 34 35 36 37 38 39 40 41 42 43 44 45 46 47 48 49 50

000
ASUS45 KCYS 270510
RWRWY

WYOMING REGIONAL WEATHER ROUNDUP
NATIONAL WEATHER SERVICE CHEYENNE WY
1100 PM MDT SUN JUL 26 2015

NOTE:  "FAIR" INDICATES FEW OR NO CLOUDS BELOW 12,000 FEET
WITH NO SIGNIFICANT WEATHER AND/OR OBSTRUCTIONS TO VISIBILITY.

WYZ001-270600-
YELLOWSTONE NATIONAL PARK

CITY           SKY/WX    TMP DP  RH WIND       PRES   REMARKS
LK YELLOWSTONE   N/A     49  36  61 NW3       30.13F
W YELLOWSTONE  NOT AVBL

$$
WYZ002>013-054>058-071-098>099-270600-
NORTHERN WYOMING

CITY           SKY/WX    TMP DP  RH WIND       PRES   REMARKS
JACKSON        FAIR      57  45  62 N3        30.00S
CODY           FAIR      70  39  32 NW3       29.88F
GREYBULL       FAIR      78  40  25 W7        29.75F
WORLAND        FAIR      66  41  40 S3        29.78S
SHERIDAN       FAIR      62  48  60 CALM      29.82F
BUFFALO        FAIR      68  43  40 NW3       29.90S
GILLETTE       FAIR      75  50  41 SE13      29.83F
HULETT         FAIR      72  61  68 E9G20     29.88R
NEWCASTLE      FAIR      73  52  46 SE17      29.91S

$$
WYZ014>020-022>026-101>103-270600-
CENTRAL WYOMING

CITY           SKY/WX    TMP DP  RH WIND       PRES   REMARKS
BIG PINEY      FAIR      52  35  52 S3        30.07S
PINEDALE       FAIR      52  32  46 CALM      30.08F
DUBOIS         FAIR      57  27  30 NW7       30.06F
LANDER         FAIR      76  24  14 SW14      29.91R
RIVERTON       FAIR      74  25  16 W12       29.91S
CASPER         FAIR      62  35  36 S5        29.90F
DOUGLAS        FAIR      73  54  51 SE15G24   29.93S

$$
WYZ021-027>030-104>119-270600-
SOUTHERN WYOMING

CITY           SKY/WX    TMP DP  RH WIND       PRES   REMARKS
EVANSTON       FAIR      67  27  22 S8        30.06F
KEMMERER       FAIR      64  25  22 CALM      30.09S
FORT BRIDGER   CLEAR     68  30  24 W6        30.09S
ROCK SPRINGS   FAIR      74  33  22 SW3       30.08R
DIXON          FAIR      75  39  27 S17G24    30.09F
RAWLINS        FAIR      72  35  25 SW12      30.07S
SARATOGA       FAIR      68  34  28 SW6       30.11S
LARAMIE        FAIR      62  51  67 S24G30    30.12F
CHEYENNE       FAIR      63  54  72 S9        30.11R
TORRINGTON     FAIR      65  58  78 E12       29.96R
PINE BLUFFS    FAIR      64  54  68 S8G16     30.04S

$$


USA.gov is the U.S. government's official web portal to all federal, state and local government web resources and services.